Location: Les Gen�tes
(46.3104°N, 1.5969°E)
Time: 10:43:10
(UTC+00:00)

Spot 4 - Pass Details

Date: 01 June 2020
Orbit: 703 x 724 km, 98.3° (Epoch: 05 July)

Event Time Altitude Azimuth Distance (km) Brightness Sun altitude
Exits shadow 22:53:28 45° 174° (S) 988 4.1 -20.2°
Maximum altitude 22:55:00 82° 256° (WSW) 735 3.8 -20.3°
Drops below altitude 10° 22:59:53 10° 345° (NNW) 2,217 7.6 -20.5°
Sets 23:02:10 0° 346° (NNW) 3,139 8.8 -20.6°
